Location: *
(38.9555°S, 57.3572°E)
Time: 01:32:14
(UTC+00:00)

Cosmos 2112 Rocket - Pass Details

Date: 15 July 2020
Orbit: 756 x 787 km, 74.0° (Epoch: 06 August)

Event Time Altitude Azimuth Distance (km) Brightness Sun altitude
Rises 14:42:15 0° 193° (SSW) 3,269 7.3 -18.1°
Reaches altitude 10° 14:44:44 10° 187° (S) 2,340 6.4 -18.5°
Maximum altitude 14:49:53 48° 113° (ESE) 1,015 4.2 -19.5°
Enters shadow 14:53:09 21° 47° (NE) 1,682 5.4 -20.1°
